Location: �chenoz-la-M�line
(47.6009°N, 6.1354°E)
Time: 13:07:04
(UTC+00:00)

GEOS 3 Rocket - Pass Details

Date: 27 January 2021
Orbit: 772 x 848 km, 115.0° (Epoch: 02 March)

Event Time Altitude Azimuth Distance (km) Brightness Sun altitude
Rises 04:36:25 0° 119° (ESE) 3,381 7.8 -25.5°
Reaches altitude 10° 04:38:46 10° 114° (ESE) 2,457 7.0 -25.1°
Maximum altitude 04:43:55 50° 41° (NE) 1,078 4.4 -24.2°
Enters shadow 04:46:51 25° 339° (NNW) 1,663 5.0 -23.7°
